Regional Weather Roundup
Issued by NWS

Home | Current Version | Previous Version | Graphics & Text | Print | Product List | Glossary On
Versions: 1 2 3 4 5 6 7 8 9 10 11 12 13 14 15 16 17 18 19 20 21 22 23 24 25 26 27 28 29 30 31 32 33 34 35 36 37 38 39 40 41 42 43 44 45 46 47 48 49 50
000
ASUS43 KDMX 301103
RWRIA

WEATHER ROUNDUP FOR IOWA
NATIONAL WEATHER SERVICE DES MOINES IA
600 AM CDT MON MAY 30 2016

NOTE: "FAIR" INDICATES FEW OR NO CLOUDS BELOW 12,000 FEET WITH NO
SIGNIFICANT WEATHER AND/OR OBSTRUCTIONS TO VISIBILITY.

* - THESE STATIONS ARE NOT NWS STATIONS...THUS NOT UNDER NWS
QUALITY CONTROL.  THEY ALSO DO NOT REPORT WEATHER SUCH
AS PRECIPITATION OR FOG.

IAZ001>003-012>014-020>022-031>034-043>046-301200-
   NORTHWEST IOWA

CITY           SKY/WX    TMP DP  RH WIND       PRES   REMARKS
CARROLL *      CLOUDY    63  57  82 SE6       30.00F
CHEROKEE *     CLOUDY    61  57  85 NE5       30.02F
DENISON *      CLEAR     61  55  82 CALM      29.98S
LE MARS *      CLOUDY    64  54  68 CALM      30.01F
ORANGE CITY *  CLEAR     61  55  82 NE8       30.00F
SHELDON *      CLOUDY    59  55  88 E7        30.02R
SIOUX CITY     PTCLDY    66  52  60 E12       29.98F
SPENCER        LGT RAIN  59  53  80 NE20      30.01F
STORM LAKE *   PTCLDY    64  52  63 N14       30.04S
$$

IAZ055>058-069>071-079>083-090>094-301200-
   SOUTHWEST IOWA

CITY           SKY/WX    TMP DP  RH WIND       PRES   REMARKS
ATLANTIC *     CLEAR     61  59  94 CALM      30.00S
AUDUBON *      CLEAR     57  54  88 CALM      30.02S
CLARINDA *       N/A     59  59 100 MISG      30.03R
COUNCIL BLFS * CLEAR     64  59  82 CALM      30.00R
CRESTON *      CLEAR     63  59  88 S7        30.03S
HARLAN  *      CLEAR     59  59 100 CALM      30.02F
LAMONI         CLEAR     62  60  93 SW7       30.03R
RED OAK *      CLEAR     61  61 100 CALM      30.01R
SHENANDOAH *   CLEAR     63  63 100 CALM      30.02R
$$

IAZ047>049-059>061-072>074-084-301200-
   CENTRAL IOWA

CITY           SKY/WX    TMP DP  RH WIND       PRES   REMARKS
AMES           PTCLDY    60  57  89 CALM      30.01R
ANKENY *       MOCLDY    61  59  94 CALM      30.00S
BOONE *        PTCLDY    63  55  77 E5        30.00S
CHARITON *     PTCLDY    64  61  88 S7        30.02R
DES MOINES     CLOUDY    65  59  81 S6        30.00R
GRINNELL*      CLOUDY    63  57  82 CALM      30.03R
KNOXVILLE *    CLOUDY    66  63  88 S6        30.01R
MARSHALLTOWN   MOCLDY    63  60  90 NE7       30.01S
NEWTON *       CLOUDY    63  61  94 NE5       30.01R
PELLA *        CLOUDY    63  62  96 CALM      30.02S
PERRY *          N/A     64  59  82 E7        30.00S
$$

IAZ004>006-015-016-023>025-035-036-301200-
   NORTH CENTRAL IOWA

CITY           SKY/WX    TMP DP  RH WIND       PRES   REMARKS
ALGONA *       CLOUDY    63  52  67 NW16G25   30.07R
CLARION *      CLOUDY    61  55  82 NW16      30.05R
ESTHERVILLE    LGT RAIN  60  53  77 S12       30.07R
FORT DODGE *   CLOUDY    61  52  72 E6        30.03R
MASON CITY     CLOUDY    54  52  93 CALM      30.04R
FOREST CITY *  PTCLDY    52  52 100 CALM      30.03R
WEBSTER CITY * PTCLDY    59  55  88 E6        30.00R
IOWA FALLS *   CLOUDY    61  59  94 CALM      30.04R
$$

IAZ007>011-017>019-026>030-037>042-050>054-066-301200-
   NORTHEAST IOWA

CITY           SKY/WX    TMP DP  RH WIND       PRES   REMARKS
CEDAR RAPIDS   CLOUDY    59  58  96 CALM      30.02R
CHARLES CITY * CLEAR     55  54  94 NE3       30.03S
CLINTON *      CLOUDY    62  59  90 SW3       30.02R
DECORAH *      CLEAR     57  57 100 CALM      30.02S FOG
DUBUQUE        CLEAR     58  55  90 N6        30.03R
MONTICELLO *   CLOUDY    57  57 100 CALM      30.02R
OELWEIN *      CLOUDY    57  57 100 CALM      30.04R
WATERLOO       CLOUDY    55  54  96 CALM      30.02R FOG
$$

IAZ064-065-067-068-078-301200-
   EAST CENTRAL IOWA

CITY           SKY/WX    TMP DP  RH WIND       PRES   REMARKS
DAVENPORT      CLOUDY    62  57  83 SW5       30.02S
IOWA CITY      CLOUDY    62  58  86 CALM      30.03R
MT. PLEASANT * CLOUDY    68  63  83 SW5       30.02R
MUSCATINE *    MOCLDY    63  59  88 CALM      30.02R
QUAD CITIES    PTCLDY    62  58  86 S3        30.01S
$$

IAZ062-063-075>077-085>089-095>099-301200-
   SOUTHEAST IOWA

CITY           SKY/WX    TMP DP  RH WIND       PRES   REMARKS
BURLINGTON     CLEAR     65  62  90 CALM      30.02R
FAIRFIELD *      N/A    N/A N/A N/A MISG        N/A
FORT MADISON * PTCLDY    64  61  88 S3        30.03S
KEOKUK *       PTCLDY    64  63  94 CALM      30.03S
OSKALOOSA *      N/A     66  59  77 SW5       30.02F
OTTUMWA        TSTM      65  60  84 SW6       30.02F
WASHINGTON *   PTCLDY    64 N/A N/A CALM      30.04R
$$

ABBREVIATIONS USED IN REMARKS
   TC - TEMPERATURES IN CELSIUS
  WCI - WIND CHILL INDEX
   HX - HEAT INDEX
  VSB - VISIBILITY
$$





USA.gov is the U.S. government's official web portal to all federal, state and local government web resources and services.